Flag for Austria Weather past 2 weeks in Grieskirchen, Upper Austria, Austria

Now
27 °F

Partly sunny.


Feels Like: 27 °F
Forecast: 30 / 40 °F
Wind: No wind

Location: Linz / Hoersching-Flughafen

Current Time: Feb 27, 2015 at 7:10:02 AM

Latest Report: Feb 27, 2015 at 6:50 AM


Visibility: 4 mi

Pressure: 29.89 "Hg

Humidity: 100%

Dew point: 27 °F

Location of GrieskirchenLocation

Historic Weather in Grieskirchen — Graph

°F

Grieskirchen temperature yesterday

Maximum temperature yesterday: 46 °F (at 1:50 PM)
Minimum temperature yesterday: 30 °F (at 4:20 AM)
Average temperature yesterday: 38 °F

Past Weeks' High & Low Weather Summary

 TemperatureHumidityPressure
High52 °F (Feb 16, 3:20 PM)100% (Feb 14, 6:50 PM)30.74 "Hg (Feb 14, 6:50 PM)
Low21 °F (Feb 15, 2:20 AM)46% (Feb 26, 2:50 PM)29.50 "Hg (Feb 21, 4:20 PM)
Average35 °F84%30.06 "Hg
* Reported Feb 12 5:20 AM — Feb 27 5:20 AM, Grieskirchen, Weather by CustomWeather, © 2015

Note: Actual official high and low records may vary slightly from our data, if they occured in-between our weather recording intervals... More about our weather records

Advertising

Grieskirchen weather history for previous 24 hours

 ConditionsComfort  
Time TempWeatherWind HumidityBarometerVisibility
5:20 AM
Fri, Feb 27
27 °FClear.1 mph100%29.89 "Hg5 mi
4:50 AM27 °FClear.2 mph100%29.89 "Hg4 mi
4:20 AM27 °FClear.1 mph100%29.92 "Hg5 mi
3:50 AM28 °FClear.2 mph93%29.92 "Hg5 mi
3:20 AM28 °FChilly.1 mph93%29.92 "Hg6 mi
2:50 AM28 °FChilly.1 mph93%29.92 "Hg6 mi
2:20 AM28 °FChilly.1 mph93%29.95 "Hg5 mi
1:50 AM28 °FChilly.1 mph100%29.95 "Hg6 mi
1:20 AM28 °FChilly.1 mph100%29.95 "HgN/A
12:50 AM30 °FChilly.1 mph93%29.98 "HgN/A
12:20 AM30 °FChilly.2 mph93%29.98 "HgN/A
11:50 PM
Thu, Feb 26
32 °FChilly.1 mph87%29.98 "HgN/A
11:20 PM32 °FChilly.1 mph87%30.01 "HgN/A
10:50 PM32 °FClear.2 mph87%30.01 "Hg10 mi
9:50 PM36 °FPassing clouds.5 mph81%30.04 "HgN/A
9:20 PM36 °FPassing clouds.3 mph81%30.04 "HgN/A
8:50 PM37 °FPassing clouds.3 mph75%30.04 "HgN/A
8:20 PM37 °FPassing clouds.1 mph75%30.04 "HgN/A
7:50 PM37 °FPassing clouds.1 mph70%30.07 "HgN/A
7:20 PM41 °FPassing clouds.3 mph61%30.07 "HgN/A
6:50 PM41 °FPassing clouds.3 mph61%30.07 "HgN/A
6:20 PM41 °FPassing clouds.3 mph61%30.07 "HgN/A
5:50 PM43 °FPassing clouds.5 mph57%30.07 "HgN/A
5:20 PM45 °FScattered clouds.5 mph53%30.07 "HgN/A
4:50 PM45 °FPassing clouds.2 mph49%30.07 "HgN/A
4:20 PM45 °FScattered clouds.3 mph49%30.07 "HgN/A
3:50 PM46 °FScattered clouds.1 mph46%30.09 "HgN/A
3:20 PM45 °FScattered clouds.2 mph49%30.09 "HgN/A
2:50 PM46 °FScattered clouds.2 mph46%30.09 "HgN/A
2:20 PM46 °FScattered clouds.5 mph50%30.12 "HgN/A
1:50 PM46 °FScattered clouds.3 mph50%30.12 "HgN/A
1:20 PM45 °FScattered clouds.3 mph53%30.12 "HgN/A
12:50 PM45 °FScattered clouds.5 mph57%30.15 "HgN/A
12:20 PM43 °FScattered clouds.3 mph61%30.15 "HgN/A
11:50 AM43 °FScattered clouds.2 mph71%30.18 "HgN/A
11:20 AM39 °FPartly sunny.3 mph75%30.18 "HgN/A
10:50 AM39 °FPartly sunny.1 mph81%30.18 "HgN/A
10:20 AM37 °FPartly sunny.3 mph87%30.18 "Hg5 mi
9:50 AM36 °FPartly sunny.5 mph87%30.18 "Hg5 mi
9:20 AM36 °FPartly sunny.5 mph87%30.21 "Hg5 mi
8:50 AM34 °FBroken clouds.2 mph93%30.21 "Hg4 mi
8:20 AM34 °FBroken clouds.2 mph93%30.21 "Hg4 mi
7:50 AM34 °FBroken clouds.1 mph93%30.21 "Hg4 mi
Weather by CustomWeather, © 2015

See weather overviewHow to use our weather pages